North Windham, CT

7:55 AM EST on February 14, 2016 (GMT -0500)
Windham

Weather History for KIJD - December, 2011

Change the Weather History Date:

Sunday, December 11, 2011

  Actual Average Record
Temperature  
Mean Temperature 29 °F -  
Max Temperature 37 °F 42 °F 62 °F (1966)
Min Temperature 21 °F 21 °F -9 °F (1958)
Degree Days  
Heating Degree Days 36    
Moisture  
Dew Point 15 °F    
Average Humidity 59    
Maximum Humidity 85    
Minimum Humidity 35    
Precipitation  
Precipitation 0.00 in - - ()
Sea Level Pressure  
Sea Level Pressure 30.59 in    
Wind  
Wind Speed 3 mph (NW)    
Max Wind Speed 6 mph    
Max Gust Speed -    
Visibility 10 miles    
Events      
Averages and records for this station are not official NWS values.
T = Trace of Precipitation, MM = Missing Value Source: NWS Daily Summary

Daily Weather History Graph

Daily Weather History Graph

Search for Another Location

Airport or City:

Trip Planner

Search our weather history database for the weather conditions in past years. The results will help you decide how hot, cold, wet, or windy it might be!

Date:

Astronomy

Dec. 11, 2011 Rise Set
Actual Time 7:05 AM EST 4:18 PM EST
Civil Twilight 6:34 AM EST 4:49 PM EST
Nautical Twilight 5:59 AM EST 5:24 PM EST
Astronomical Twilight 5:25 AM EST 5:58 PM EST
Moon 5:25 PM EST (12/11) 7:51 AM EST (12/11)
Length of Visible Light 10h 15m
Length of Day
9h 12m
Full, 99% of the Moon is Illuminated
Dec 11
Full
Dec 17
Last Quarter
Dec 24
New
Jan 1
First Quarter
Jan 9
Full

Hourly Weather History & Observations

Time (EST) Temp. Windchill Dew Point Humidity Pressure Visibility Wind Dir Wind Speed Gust Speed Precip Events Conditions
12:52 AM 28.0 °F 21.7 °F 10.0 °F 47% 30.48 in 10.0 mi NW 5.8 mph - N/A   Clear
1:52 AM 28.9 °F 22.8 °F 10.0 °F 45% 30.50 in 10.0 mi WNW 5.8 mph - N/A   Clear
2:52 AM 28.0 °F 21.7 °F 10.0 °F 47% 30.52 in 10.0 mi NW 5.8 mph - N/A   Clear
3:52 AM 27.0 °F - 10.9 °F 51% 30.53 in 10.0 mi Calm Calm - N/A   Clear
4:52 AM 24.1 °F - 12.9 °F 62% 30.54 in 10.0 mi Calm Calm - N/A   Clear
5:52 AM 21.0 °F - 15.1 °F 78% 30.57 in 10.0 mi Calm Calm - N/A   Clear
6:52 AM 21.0 °F - 15.1 °F 78% 30.60 in 10.0 mi Calm Calm - N/A   Clear
7:52 AM 21.9 °F - 16.0 °F 78% 30.62 in 10.0 mi Calm Calm - N/A   Clear
8:52 AM 27.0 °F - 16.0 °F 63% 30.63 in 10.0 mi Calm Calm - N/A   Clear
9:52 AM 32.0 °F 26.4 °F 15.1 °F 50% 30.64 in 10.0 mi NW 5.8 mph - N/A   Clear
10:52 AM 35.1 °F 32.2 °F 15.1 °F 44% 30.63 in 10.0 mi North 3.5 mph - N/A   Clear
11:52 AM 36.0 °F 31.1 °F 15.1 °F 43% 30.62 in 10.0 mi NNE 5.8 mph - N/A   Clear
12:52 PM 36.0 °F 33.3 °F 15.1 °F 43% 30.61 in 10.0 mi Variable 3.5 mph - N/A   Clear
1:52 PM 37.0 °F 32.4 °F 12.9 °F 37% 30.60 in 10.0 mi WNW 5.8 mph - N/A   Clear
2:52 PM 37.9 °F 35.5 °F 12.0 °F 35% 30.60 in 10.0 mi West 3.5 mph - N/A   Clear
3:52 PM 36.0 °F 33.3 °F 12.9 °F 39% 30.61 in 10.0 mi West 3.5 mph - N/A   Clear
4:52 PM 33.1 °F - 14.0 °F 46% 30.61 in 10.0 mi Calm Calm - N/A   Clear
5:52 PM 28.9 °F - 18.0 °F 64% 30.61 in 10.0 mi Calm Calm - N/A   Clear
6:52 PM 28.0 °F - 18.0 °F 66% 30.62 in 10.0 mi Calm Calm - N/A   Clear
7:52 PM 27.0 °F - 18.0 °F 69% 30.63 in 10.0 mi Calm Calm - N/A   Clear
8:52 PM 25.0 °F - 19.0 °F 78% 30.63 in 10.0 mi Calm Calm - N/A   Clear
9:52 PM 25.0 °F - 19.0 °F 78% 30.63 in 10.0 mi Calm Calm - N/A   Clear
10:52 PM 23.0 °F - 19.0 °F 85% 30.63 in 10.0 mi Calm Calm - N/A   Clear
11:52 PM 23.0 °F - 18.0 °F 81% 30.62 in 10.0 mi Calm Calm - N/A   Clear